Location: Robert Ferguson Observatory
(38.4385°N, 122.5078°W)
Time: 10:43:13
(UTC-07:00)

Daily predictions for brighter satellites

Satellite Brightness Start Highest point End
(mag) Time Altitude Azimuth Time Altitude Azimuth Time Altitude Azimuth
H-2A R/B 4.2 19:36:23 10° WSW 19:41:27 46° S 20:15:11 10° ESE
Cosmos 2360 4.5 20:11:48 10° S 20:17:13 47° ESE 20:22:41 10° NE
BREEZE-M DEB (TANK) 3.7 20:15:27 10° W 20:18:01 44° NNW 20:23:01 10° ENE
ATLAS CENTAUR R/B 1.5 20:17:19 10° NW 20:19:42 88° SW 20:25:17 10° SE
ERBS 4.5 20:20:31 10° N 20:22:48 16° NE 20:25:06 10° ENE
Molniya-1 3.6 20:24:24 10° S 20:25:41 19° ESE 20:27:09 10° ENE
Cosmos 1455 2.4 20:22:35 10° SSE 20:26:14 46° E 20:29:52 10° NNE
Cosmos 1869 4.2 20:27:31 10° SSE 20:30:52 27° E 20:34:15 10° NNE
OTV 4 1.6 20:29:03 10° W 20:31:38 31° SSW 20:34:14 10° SE
Meteor 1-27 4.4 20:26:15 10° S 20:31:53 81° W 20:37:29 10° N
SJ-6B 4.3 20:30:49 10° S 20:34:29 40° W 20:38:17 10° NNW
Cosmos 1400 Rocket 2.8 20:35:19 10° N 20:39:14 85° W 20:43:09 10° S
Cosmos 1892 2.8 20:40:53 10° N 20:44:40 80° W 20:48:28 10° S
Cosmos 1697 Rocket 3.9 20:39:16 10° SW 20:44:42 47° WNW 20:50:10 10° N
USA 186 1.3 20:42:44 10° SSE 20:45:19 59° ENE 20:48:06 10° N
CENTAUR R/B 3.7 20:39:34 10° WSW 20:45:22 47° NW 20:51:57 10° NNE
Milstar 3 3.6 20:37:49 10° WSW 20:45:40 39° S 20:50:56 14° ESE
Gblst 52 Del rocket 4.3 20:42:00 10° NW 20:47:53 79° SW 20:52:45 13° SE
ALOS 3.9 20:44:10 10° SSW 20:48:27 36° W 20:52:47 10° NNW
Cosmos 2026 Rocket 4.5 20:43:05 10° N 20:48:56 40° ENE 20:54:29 11° SE
H-2A R/B 3.8 20:46:58 10° S 20:50:45 47° W 20:54:32 10° NNW
Cosmos 1315 Rocket 2.8 20:47:40 10° N 20:51:45 68° E 20:55:45 10° SSE
Abrixas rocket 3.3 20:49:54 10° WSW 20:53:05 46° NNW 20:56:16 10° NE
Cosmos 2297 Rocket 4.2 20:49:25 10° NW 20:54:04 27° WSW 20:58:42 10° SSW
DELTA 2 R/B (1) 3.8 20:49:44 10° W 20:55:17 62° SSW 20:59:32 17° SE
YAOGAN 6 4.2 20:54:41 17° E 20:55:56 19° ENE 20:58:36 10° NNE
Nadezhda 4 Rocket 4.4 20:53:41 10° NNW 20:59:54 67° W 21:06:08 10° S
Cosmos 1707 Rocket 3.7 20:56:14 10° S 21:00:41 80° W 21:05:08 10° N
CZ-3B DEB 2.6 20:58:29 10° WNW 21:02:07 27° WSW 21:04:07 12° S
Cosmos 2263 Rocket 3.4 20:58:38 10° N 21:03:16 26° ENE 21:06:05 18° E
Cosmos 1354 Rocket 4.5 20:58:13 10° N 21:03:16 44° ENE 21:06:35 20° SE
Cosmos 1634 Rocket 4.0 20:59:02 10° S 21:05:18 80° E 21:11:39 10° N
Cosmos 2322 Rocket 2.3 20:59:58 10° S 21:05:23 52° ESE 21:10:50 10° NNE
Spot 2 Rocket 4.4 21:02:52 10° S 21:07:48 50° W 21:12:46 10° NNW
Cosmos 1092 Rocket 4.2 21:02:26 10° N 21:08:47 80° W 21:15:07 10° S
Meteor 1-29 2.8 21:05:29 10° NNE 21:08:59 69° ESE 21:12:25 10° S
CZ-2D R/B 4.5 21:05:42 10° S 21:09:24 42° W 21:13:07 10° NNW
Cosmos 1733 Rocket 3.8 21:05:34 10° N 21:09:40 35° ENE 21:11:35 24° SE
Cosmos 1655 Rocket 4.3 21:04:58 10° N 21:11:11 50° E 21:15:50 18° SSE
Helios 1B rocket 2.4 21:08:00 10° NNE 21:12:07 86° WNW 21:16:12 10° SSW
Cosmos 1862 Rocket 4.1 21:11:07 20° SSE 21:13:41 38° E 21:17:51 10° NNE
Lacrosse 4 Rocket 2.2 21:10:11 10° N 21:14:14 38° ENE 21:16:01 26° ESE
Cosmos 1825 2.2 21:12:48 10° N 21:16:33 56° E 21:18:16 29° SSE
Cosmos 2360 Rocket 3.2 21:15:51 23° ESE 21:16:38 24° E 21:21:02 10° NE
Cosmos 1980 Rocket 3.5 21:11:55 10° SW 21:17:17 43° WNW 21:22:44 10° N
Cosmos 1862 3.8 21:14:53 10° N 21:18:41 40° E 21:19:52 31° ESE
CZ-4B DEB 2.6 21:20:45 29° S 21:22:08 79° WSW 21:25:11 10° NNW
Meteor 2-20 Rocket 4.4 21:17:01 10° N 21:23:10 81° E 21:28:33 14° S
Cosmos 1939 Rocket 2.8 21:21:31 23° SSE 21:24:01 83° ENE 21:28:03 10° N
Envisat 3.1 21:23:11 14° S 21:27:37 78° WSW 21:32:43 10° NNW
Cosmos 2242 Rocket 3.6 21:23:11 10° S 21:27:42 85° W 21:32:14 10° N
SJ-11-01 4.3 21:28:22 19° S 21:31:43 79° WSW 21:36:24 10° NNW
SL-16 R/B 2.1 21:26:42 10° SSW 21:32:22 88° ESE 21:38:05 10° NNE
SPOT 5 3.8 21:34:04 28° E 21:34:53 29° ENE 21:38:58 10° N
Intercosmos 25 Rocket 3.6 21:36:50 15° SSW 21:39:15 55° W 21:42:49 10° N
Resurs 01 Rocket 4.3 21:40:57 10° SW 21:43:47 17° W 21:46:38 10° NW
Helios 1A 4.4 21:40:06 11° SSW 21:43:52 35° W 21:47:47 10° NNW
OAO 3 Rocket 3.3 21:39:02 10° WSW 21:43:52 58° S 21:44:57 46° SE
ATLAS 5 CENTAUR R/B 3.3 21:39:45 10° NNW 21:45:13 35° NE 21:47:28 28° E
MetOp-B 4.4 21:44:34 39° ESE 21:46:04 50° ENE 21:51:13 10° N
Cosmos 2279 Rocket 4.0 21:41:24 10° S 21:47:39 81° W 21:53:54 10° N
SEDSat Delta rocket 4.2 21:42:54 10° SW 21:48:02 38° SSE 21:48:41 37° SSE
Meteor 1-26 Rocket 4.4 21:48:41 40° SE 21:50:08 50° E 21:55:40 10° NNE
SPOT 1/Viking Rocket 4.4 21:52:06 32° E 21:52:34 32° ENE 21:57:10 10° N
ARGOS 3.5 21:53:21 41° E 21:54:17 45° ENE 21:59:23 10° N
Cosmos 1408 4.0 21:54:14 10° NNW 21:57:39 35° W 21:59:06 25° SW
USA 234 3.5 21:54:42 32° SSE 21:57:49 62° SW 22:04:19 10° NW
Atlas Centaur 2 3.4 21:51:33 10° SW 21:58:23 38° SSE 21:59:34 37° SE
ERBS 3.0 21:56:21 10° NW 21:59:23 49° WSW 21:59:23 49° WSW
ERS-1 Rocket 3.0 22:02:11 42° S 22:03:53 73° WSW 22:08:55 10° NNW
Cosmos 1844 Rocket 4.3 22:02:58 10° N 22:06:54 19° NE 22:07:24 19° ENE
Sich 1 Rocket 3.6 22:04:41 10° N 22:08:57 69° ENE 22:08:57 69° ENE
MOS 1-B Rocket 3.9 22:16:44 57° SE 22:17:48 69° ENE 22:23:28 10° N
SeaSat 1 2.3 22:19:46 76° E 22:19:56 77° ENE 22:24:53 10° NNW
H-2A R/B 3.8 22:21:27 22° NE 22:21:27 22° NE 22:23:37 10° NNE
Cosmos 2219 Rocket 4.5 22:27:00 11° NE 22:27:00 11° NE 22:27:09 10° NE
Meteor 1-14 Rocket 4.1 22:18:45 10° N 22:24:25 74° E 22:24:47 71° ESE
USA 245 4.2 22:23:32 64° SSE 22:24:31 89° E 22:29:57 10° NNW
Cosmos 1908 Rocket 3.8 22:21:33 10° N 22:25:26 66° NW 22:25:26 66° NW
MetOp-A 4.5 22:31:02 50° SW 22:31:59 58° W 22:37:17 10° NNW
Cosmos 1782 Rocket 4.4 22:35:26 10° N 22:38:32 46° N 22:38:32 46° N
Okean 2 Rocket 4.2 22:36:01 10° N 22:38:59 39° NNE 22:38:59 39° NNE
USA 229 DEB 3.5 22:39:03 44° SSW 22:41:29 84° ESE 22:48:27 10° NE
USA 229 3.5 22:39:21 46° SSW 22:41:35 83° ESE 22:48:32 10° NE
Terra 3.1 22:44:38 33° NNE 22:44:38 33° NNE 22:47:38 10° N
Meteor 1-25 Rocket 4.2 22:37:52 10° N 22:43:00 72° NNE 22:43:00 72° NNE
H-2A R/B 2.2 22:45:19 63° N 22:45:19 63° N 22:49:29 10° N
Cosmos 1867 3.7 22:39:03 10° NNW 22:44:01 70° N 22:44:01 70° N
COSMOS 2428 3.6 22:46:58 37° NE 22:46:58 37° NE 22:50:26 10° NNE
Cosmos 2263 Rocket 2.9 22:42:06 10° NW 22:47:18 42° WSW 22:47:48 41° WSW
Cosmos 2322 Rocket 4.5 22:45:28 10° WSW 22:49:44 22° NW 22:54:02 10° N
Lacrosse 4 Rocket 3.7 22:49:39 10° WNW 22:52:23 18° WSW 22:52:23 18° WSW
Cosmos 2360 Rocket 3.2 22:57:26 25° WSW 23:00:17 44° WNW 23:05:42 10° N
Meteor 1-20 Rocket 4.5 22:59:43 10° NNW 23:04:30 64° NW 23:04:30 64° NW
Cosmos 968 Rocket 4.5 23:02:14 10° NNW 23:06:27 42° W 23:06:27 42° W
Cosmos 2333 Rocket 3.9 23:28:48 25° NE 23:28:48 25° NE 23:31:07 10° NNE
CZ-4C R/B 3.8 23:22:58 10° NNW 23:29:28 37° NE 23:30:05 36° ENE
ATLAS 5 CENTAUR R/B 3.3 23:24:15 10° NW 23:29:01 41° W 23:29:01 41° W
Cosmos 2237 Rocket 4.2 23:38:23 20° NE 23:38:23 20° NE 23:40:07 10° NNE
Cosmos 2278 Rocket 3.5 23:34:25 10° N 23:37:59 33° NNE 23:37:59 33° NNE
Cosmos 1844 Rocket 4.0 23:45:44 10° NNW 23:49:04 36° NW 23:49:04 36° NW
